FW5814 Weather Reports


time (UTC)temp
F
wind
direction
speed
knots
gust
knots
rain 1hr
in
rain 24hr
in
rain mn
in
humidity
%
barometer
mb
20260505194514 83 213 9.6 14.8 0.00 0.00 0.00 68 1003.7
20260505194021 84 182 9.6 16.5 0.00 0.00 0.00 69 1003.7
20260505193511 84 167 9.6 16.5 0.00 0.00 0.00 68 1003.6
20260505193011 84 217 10.4 20.0 0.00 0.00 0.00 67 1003.7
20260505192514 83 211 13.0 20.0 0.00 0.00 0.00 68 1003.8
20260505192006 83 171 10.4 16.5 0.00 0.00 0.00 68 1003.9
20260505191507 83 192 12.2 16.5 0.00 0.00 0.00 68 1004.0
20260505191009 83 200 12.2 16.5 0.00 0.00 0.00 69 1004.1
20260505190504 82 197 10.4 15.6 0.00 0.00 0.00 68 1004.2
20260505190003 82 200 9.6 17.4 0.00 0.00 0.00 69 1004.4
20260505185502 82 215 10.4 19.1 0.00 0.00 0.00 69 1004.4
20260505185002 82 217 12.2 19.1 0.00 0.00 0.00 69 1004.4
20260505184501 82 200 10.4 16.5 0.00 0.00 0.00 69 1004.5
20260505184101 82 185 9.6 16.5 0.00 0.00 0.00 70 1004.5
20260505183603 82 223 9.6 16.5 0.00 0.00 0.00 69 1004.6
20260505183058 81 227 11.3 17.4 0.00 0.00 0.00 71 1004.6
20260505182558 81 206 10.4 17.4 0.00 0.00 0.00 70 1004.6
20260505182028 81 206 8.7 15.6 0.00 0.00 0.00 71 1004.5
20260505181529 81 360 8.7 18.2 0.00 0.00 0.00 71 1004.6
20260505181026 81 195 11.3 19.1 0.00 0.00 0.00 70 1004.7
20260505180527 81 183 12.2 19.1 0.00 0.00 0.00 70 1004.6
20260505180028 80 179 9.6 19.1 0.00 0.00 0.00 72 1004.6
20260505175526 80 215 11.3 20.9 0.00 0.00 0.00 71 1004.4
20260505175057 80 186 13.9 20.9 0.00 0.00 0.00 72 1004.4
20260505174602 79 203 13.9 20.9 0.00 0.00 0.00 72 1004.4
20260505174100 80 205 12.2 18.2 0.00 0.00 0.00 72 1004.6
20260505173553 80 201 8.7 17.4 0.00 0.00 0.00 74 1004.5
20260505173052 79 186 11.3 20.0 0.00 0.00 0.00 74 1004.5
20260505172549 78 189 12.2 20.0 0.00 0.00 0.00 74 1004.5
20260505172021 78 232 13.0 19.1 0.00 0.00 0.00 73 1004.6
20260505171523 78 226 13.9 19.1 0.00 0.00 0.00 74 1004.8
20260505171019 78 225 11.3 20.9 0.00 0.00 0.00 74 1004.7
20260505170519 78 215 10.4 20.9 0.00 0.00 0.00 74 1004.7
20260505170020 78 217 13.0 17.4 0.00 0.00 0.00 74 1004.8
20260505165518 78 225 11.3 18.2 0.00 0.00 0.00 74 1004.8
20260505165016 78 238 12.2 18.2 0.00 0.00 0.00 74 1004.8
20260505164515 78 230 11.3 21.7 0.00 0.00 0.00 74 1004.8
20260505164025 77 209 14.8 21.7 0.00 0.00 0.00 74 1004.6
20260505163514 78 220 13.0 19.1 0.00 0.00 0.00 74 1004.5
20260505163013 78 223 12.2 22.6 0.00 0.00 0.00 74 1004.4
20260505162512 78 215 13.9 22.6 0.00 0.00 0.00 74 1004.5
20260505162011 77 232 13.0 21.7 0.00 0.00 0.00 75 1004.6
20260505161512 78 200 13.0 23.5 0.00 0.00 0.00 75 1004.5
20260505161014 78 226 12.2 23.5 0.00 0.00 0.00 75 1004.6
20260505160511 77 202 13.0 20.9 0.00 0.00 0.00 74 1004.7
20260505153031 75 206 13.0 18.2 0.00 0.00 0.00 77 1005.0
20260505152531 75 208 11.3 20.0 0.00 0.00 0.00 79 1004.9
20260505152030 74 223 10.4 17.4 0.00 0.00 0.00 79 1005.0
20260505151526 75 229 9.6 18.2 0.00 0.00 0.00 79 1005.0
20260505151025 74 218 12.2 20.9 0.00 0.00 0.00 80 1004.9
20260505150524 74 209 11.3 20.0 0.00 0.00 0.00 80 1005.1
20260505140513 72 196 11.3 17.4 0.00 0.00 0.00 81 1005.0
20260505124610 71 199 7.8 13.9 0.00 0.00 0.00 84 1004.5
20260505124058 71 195 7.8 13.9 0.00 0.00 0.00 84 1004.4
20260505123557 70 183 6.1 13.9 0.00 0.00 0.00 84 1004.3
20260505123101 70 213 8.7 13.9 0.00 0.00 0.00 84 1004.4
20260505122556 70 203 7.0 10.4 0.00 0.00 0.00 84 1004.2
20260505122057 70 215 7.0 11.3 0.00 0.00 0.00 84 1004.2
20260505121556 70 228 7.0 13.0 0.00 0.00 0.00 84 1004.2
20260505121056 70 227 7.0 13.0 0.00 0.00 0.00 84 1004.0
20260505120551 70 207 7.0 12.2 0.00 0.00 0.00 84 1003.9
20260505120108 70 212 7.8 11.3 0.00 0.00 0.00 84 1004.0
20260505115551 70 215 7.0 11.3 0.00 0.00 0.00 84 1003.9
20260505115055 70 192 7.8 12.2 0.00 0.00 0.00 84 1004.1
20260505114551 70 200 7.8 15.6 0.00 0.00 0.00 84 1004.2
20260505114050 70 198 6.1 15.6 0.00 0.00 0.00 84 1004.0
20260505113550 70 209 7.8 15.6 0.00 0.00 0.00 84 1003.9
20260505113054 70 211 8.7 13.9 0.00 0.00 0.00 84 1003.9
20260505112554 70 202 8.7 13.9 0.00 0.00 0.00 84 1003.8
20260505112049 70 197 8.7 12.2 0.00 0.00 0.00 85 1003.8
20260505111549 70 207 9.6 15.6 0.00 0.00 0.00 85 1003.9
20260505111018 70 165 9.6 13.9 0.00 0.00 0.00 85 1003.6
20260505110518 70 186 8.7 16.5 0.00 0.00 0.00 85 1003.7
20260505102013 70 198 9.6 18.2 0.00 0.00 0.00 84 1003.7
20260505101513 70 198 8.7 15.6 0.00 0.00 0.00 84 1003.6
20260505101012 70 193 8.7 15.6 0.00 0.00 0.00 84 1003.8
20260505100512 70 209 8.7 13.9 0.00 0.00 0.00 84 1003.8
20260505100017 70 209 7.8 13.0 0.00 0.00 0.00 84 1003.9
20260505095511 70 208 7.8 15.6 0.00 0.00 0.00 84 1004.1
20260505095011 70 205 8.7 15.6 0.00 0.00 0.00 84 1004.0
20260505094514 70 199 9.6 16.5 0.00 0.00 0.00 84 1004.0
20260505094040 70 222 9.6 17.4 0.00 0.00 0.00 84 1004.2
20260505093541 70 186 10.4 15.6 0.00 0.00 0.00 84 1004.1
20260505093040 70 180 10.4 15.6 0.00 0.00 0.00 84 1004.2
20260505092540 70 214 9.6 17.4 0.00 0.00 0.00 84 1004.3
20260505092040 70 197 11.3 17.4 0.00 0.00 0.00 83 1004.3
20260505091540 70 206 9.6 15.6 0.00 0.00 0.00 83 1004.1
20260505091011 70 166 10.4 15.6 0.00 0.00 0.00 83 1004.0
20260505090512 70 208 10.4 17.4 0.00 0.00 0.00 83 1004.0
20260505090011 70 198 11.3 20.9 0.00 0.00 0.00 83 1004.0
20260505085511 70 212 12.2 17.4 0.00 0.00 0.00 83 1003.9
20260505085011 70 202 10.4 18.2 0.00 0.00 0.00 83 1004.0
20260505084517 70 175 10.4 18.2 0.00 0.00 0.00 83 1003.8
20260505084038 70 215 11.3 20.0 0.00 0.00 0.00 83 1003.8
20260505083542 70 193 10.4 16.5 0.00 0.00 0.00 83 1003.9
20260505083038 70 172 9.6 19.1 0.00 0.00 0.00 83 1004.0
20260505082538 70 205 10.4 17.4 0.00 0.00 0.00 83 1004.1
20260505082036 70 202 11.3 17.4 0.00 0.00 0.00 83 1004.3
20260505081543 70 225 11.3 18.2 0.00 0.00 0.00 83 1004.3
20260505081034 70 210 13.0 20.9 0.00 0.00 0.00 82 1004.3
20260505080532 70 175 13.0 20.9 0.00 0.00 0.00 82 1004.6
20260505080037 70 194 11.3 19.1 0.00 0.00 0.00 82 1004.7
20260505075535 70 211 10.4 17.4 0.00 0.00 0.00 82 1004.5
20260505075032 70 218 10.4 17.4 0.00 0.00 0.00 82 1004.6
20260505074531 70 186 11.3 17.4 0.00 0.00 0.00 82 1004.7
20260505074031 70 360 8.7 18.2 0.00 0.00 0.00 82 1004.6
20260505073531 70 360 12.2 18.2 0.00 0.00 0.00 83 1004.8
20260505073041 70 197 12.2 20.0 0.00 0.00 0.00 83 1004.9
20260505072528 70 209 9.6 18.2 0.00 0.00 0.00 83 1005.1
20260505072028 70 183 10.4 20.9 0.00 0.00 0.00 82 1005.1
20260505071545 70 190 12.2 20.9 0.00 0.00 0.00 82 1005.2
20260505071027 70 360 10.4 18.2 0.00 0.00 0.00 82 1005.3
20260505070523 70 360 12.2 19.1 0.00 0.00 0.00 82 1005.2
20260505070023 70 205 11.3 19.1 0.00 0.00 0.00 82 1005.3
20260505065522 70 360 8.7 20.0 0.00 0.00 0.00 82 1005.4
20260505065023 70 360 12.2 22.6 0.00 0.00 0.00 82 1005.5
20260505064525 70 360 10.4 16.5 0.00 0.00 0.00 82 1005.6
20260505064026 70 360 10.4 15.6 0.00 0.00 0.00 82 1005.4
20260505064023 70 360 9.6 15.6 0.00 0.00 0.00 82 1005.4
20260505063521 70 360 9.6 15.6 0.00 0.00 0.00 82 1005.6
20260505063021 70 360 10.4 16.5 0.00 0.00 0.00 82 1005.6
20260505062520 70 223 7.8 17.4 0.00 0.00 0.00 81 1005.8
20260505062022 70 224 8.7 17.4 0.00 0.00 0.00 81 1005.9
20260505061520 71 202 9.6 17.4 0.00 0.00 0.00 81 1005.7
20260505061022 71 225 10.4 16.5 0.00 0.00 0.00 81 1005.6
20260505060516 71 233 9.6 16.5 0.00 0.00 0.00 81 1005.8
20260505060016 71 246 9.6 16.5 0.00 0.00 0.00 80 1005.7
20260505055516 71 196 10.4 14.8 0.00 0.00 0.00 80 1005.7
20260505055016 71 186 9.6 13.9 0.00 0.00 0.00 80 1005.8
20260505054516 71 193 7.0 13.0 0.00 0.00 0.00 80 1005.8
20260505054016 71 185 7.0 19.1 0.00 0.00 0.00 80 1005.9
20260505053515 71 211 9.6 19.1 0.00 0.00 0.00 80 1005.8
20260505053023 71 215 8.7 13.9 0.00 0.00 0.00 79 1005.9
20260505052518 71 213 7.0 12.2 0.00 0.00 0.00 79 1005.9
20260505052014 71 199 7.8 13.0 0.00 0.00 0.00 79 1005.9
20260505051523 71 205 7.8 13.9 0.00 0.00 0.00 79 1006.1
20260505051016 72 200 8.7 13.0 0.00 0.00 0.00 78 1006.0
20260505050541 72 211 7.8 16.5 0.00 0.00 0.00 78 1006.0
20260505041514 72 175 7.0 12.2 0.00 0.00 0.00 76 1006.2
20260505041008 72 184 5.2 12.2 0.00 0.00 0.00 76 1006.2
20260505040541 72 225 6.1 12.2 0.00 0.00 0.00 76 1006.1
20260505040043 72 199 7.0 10.4 0.00 0.00 0.00 76 1006.0
20260505035538 72 221 5.2 8.7 0.00 0.00 0.00 75 1006.1
20260505035037 72 177 5.2 11.3 0.00 0.00 0.00 75 1005.8
20260505034538 73 190 5.2 11.3 0.00 0.00 0.00 75 1006.0
20260505034037 73 198 5.2 8.7 0.00 0.00 0.00 75 1006.0
20260505033507 73 187 3.5 11.3 0.00 0.00 0.00 74 1005.9
20260505033008 73 190 6.1 8.7 0.00 0.00 0.00 74 1006.0
20260505032507 73 191 6.1 9.6 0.00 0.00 0.00 74 1006.1
20260505032009 73 186 6.1 10.4 0.00 0.00 0.00 75 1006.0
20260505031507 73 216 5.2 10.4 0.00 0.00 0.00 75 1006.2
20260505031009 73 193 6.1 9.6 0.00 0.00 0.00 75 1006.2
20260505030502 73 194 5.2 8.7 0.00 0.00 0.00 75 1006.0
20260505030010 73 194 5.2 9.6 0.00 0.00 0.00 74 1005.8
20260505025504 73 198 6.1 9.6 0.00 0.00 0.00 75 1005.9
20260505025002 73 198 4.3 8.7 0.00 0.00 0.00 75 1006.0
20260505024502 73 190 5.2 7.8 0.00 0.00 0.00 75 1006.1
20260505024002 73 202 4.3 8.7 0.00 0.00 0.00 75 1005.9
20260505023501 73 180 3.5 8.7 0.00 0.00 0.00 75 1005.8
20260505023002 73 163 4.3 9.6 0.00 0.00 0.00 75 1005.8
20260505022602 73 197 4.3 7.8 0.00 0.00 0.00 75 1005.8
20260505022502 73 178 4.3 7.8 0.00 0.00 0.00 75 1005.8
20260505022100 73 175 4.3 8.7 0.00 0.00 0.00 74 1005.6
20260505022002 73 174 4.3 8.7 0.00 0.00 0.00 74 1005.8
20260505021500 73 182 4.3 8.7 0.00 0.00 0.00 74 1005.7
20260505021059 73 176 4.3 8.7 0.00 0.00 0.00 74 1005.6
20260505020559 73 183 3.5 7.8 0.00 0.00 0.00 74 1005.6
20260505015557 74 188 4.3 7.0 0.00 0.00 0.00 73 1005.8
20260505015102 74 190 4.3 7.8 0.00 0.00 0.00 73 1005.7
20260505014558 74 190 4.3 8.7 0.00 0.00 0.00 73 1005.8
20260505014058 74 185 4.3 7.8 0.00 0.00 0.00 72 1005.6
20260505013556 74 199 3.5 7.8 0.00 0.00 0.00 72 1005.6
20260505013056 74 194 3.5 7.0 0.00 0.00 0.00 71 1005.6
20260505012556 74 202 4.3 8.7 0.00 0.00 0.00 71 1005.4
20260505012058 75 197 5.2 13.9 0.00 0.00 0.00 71 1005.6
20260505011556 75 178 6.1 13.9 0.00 0.00 0.00 71 1005.5
20260505011155 75 198 3.5 7.8 0.00 0.00 0.00 71 1005.5
20260505010555 75 190 3.5 7.8 0.00 0.00 0.00 71 1005.5
20260505010024 75 360 5.2 8.7 0.00 0.00 0.00 70 1005.7
20260505005527 75 360 4.3 8.7 0.00 0.00 0.00 70 1005.6
20260505005024 75 360 3.5 10.4 0.00 0.00 0.00 69 1005.6
20260505004522 76 360 4.3 12.2 0.00 0.00 0.00 69 1005.7
20260505004022 76 360 6.1 12.2 0.00 0.00 0.00 68 1005.8
20260505003522 76 360 7.0 12.2 0.00 0.00 0.00 68 1005.8
20260505003056 76 360 7.0 12.2 0.00 0.00 0.00 68 1005.8
20260505002551 76 360 7.0 13.9 0.00 0.00 0.00 67 1005.9
20260505002052 77 360 8.7 14.8 0.00 0.00 0.00 67 1006.2
20260505001552 77 360 6.1 14.8 0.00 0.00 0.00 67 1006.1
20260505001053 77 186 7.8 11.3 0.00 0.00 0.00 66 1005.9
20260505000551 77 180 7.8 15.6 0.00 0.00 0.00 66 1006.0
20260505000050 77 209 10.4 15.6 0.00 0.00 0.00 65 1006.0
20260504235548 78 188 7.8 17.4 0.00 0.00 0.00 65 1006.0
20260504235047 78 182 9.6 17.4 0.00 0.00 0.00 64 1005.9
20260504234546 78 188 10.4 15.6 0.00 0.00 0.00 64 1006.0
20260504234048 78 173 8.7 14.8 0.00 0.00 0.00 64 1006.2
20260504233545 78 194 8.7 19.1 0.00 0.00 0.00 64 1006.3
20260504233045 78 200 10.4 19.1 0.00 0.00 0.00 64 1006.3
20260504232546 78 212 7.8 18.2 0.00 0.00 0.00 64 1006.4
20260504232046 78 213 8.7 14.8 0.00 0.00 0.00 64 1006.4
20260504231544 78 178 8.7 14.8 0.00 0.00 0.00 64 1006.4
20260504231045 78 195 8.7 18.2 0.00 0.00 0.00 64 1006.4
20260504230546 78 209 10.4 17.4 0.00 0.00 0.00 63 1006.4
20260504230042 78 198 12.2 21.7 0.00 0.00 0.00 63 1006.5
20260504225540 78 199 11.3 21.7 0.00 0.00 0.00 62 1006.4
20260504225043 79 188 12.2 18.2 0.00 0.00 0.00 62 1006.6
20260504224541 78 215 10.4 18.2 0.00 0.00 0.00 63 1006.6
20260504224042 79 224 10.4 20.9 0.00 0.00 0.00 62 1006.8
20260504223541 79 187 10.4 20.9 0.00 0.00 0.00 62 1006.8
20260504223039 79 194 9.6 14.8 0.00 0.00 0.00 62 1006.7
20260504222538 79 209 9.6 20.0 0.00 0.00 0.00 63 1006.8
20260504222041 79 196 10.4 20.0 0.00 0.00 0.00 62 1006.8
20260504221540 79 208 12.2 17.4 0.00 0.00 0.00 62 1006.6
20260504221038 79 180 12.2 17.4 0.00 0.00 0.00 62 1006.9
20260504220537 79 219 11.3 16.5 0.00 0.00 0.00 63 1007.0
20260504220036 79 223 9.6 20.0 0.00 0.00 0.00 62 1007.2
20260504215533 79 212 12.2 20.0 0.00 0.00 0.00 61 1007.1
20260504215036 80 198 9.6 15.6 0.00 0.00 0.00 62 1007.1
20260504214539 79 207 9.6 19.1 0.00 0.00 0.00 61 1007.3
20260504214033 79 202 10.4 19.1 0.00 0.00 0.00 61 1007.2
20260504213533 80 232 11.3 18.2 0.00 0.00 0.00 61 1007.6
20260504213031 79 219 11.3 20.0 0.00 0.00 0.00 61 1007.4
20260504212530 79 186 10.4 19.1 0.00 0.00 0.00 63 1007.6
20260504212028 79 209 8.7 20.0 0.00 0.00 0.00 62 1007.7
20260504211528 79 180 13.0 20.9 0.00 0.00 0.00 61 1007.8
20260504211027 79 228 11.3 17.4 0.00 0.00 0.00 62 1007.9
20260504210528 79 188 10.4 17.4 0.00 0.00 0.00 62 1008.0
20260504210027 79 194 11.3 21.7 0.00 0.00 0.00 62 1008.0
20260504205524 79 203 9.6 21.7 0.00 0.00 0.00 62 1008.1
20260504205023 78 192 9.6 21.7 0.00 0.00 0.00 63 1008.3
20260504204522 79 200 11.3 21.7 0.00 0.00 0.00 62 1008.2
20260504204022 79 178 11.3 21.7 0.00 0.00 0.00 62 1008.4
20260504203522 79 196 10.4 21.7 0.00 0.00 0.00 61 1008.4
20260504203021 79 194 13.0 20.9 0.00 0.00 0.00 61 1008.7
20260504202521 79 219 12.2 20.9 0.00 0.00 0.00 64 1008.8
20260504202019 78 198 12.2 20.9 0.00 0.00 0.00 62 1008.8
20260504201519 79 227 11.3 18.2 0.00 0.00 0.00 62 1008.8
20260504201018 78 202 11.3 17.4 0.00 0.00 0.00 62 1009.1
20260504200518 78 169 10.4 19.1 0.00 0.00 0.00 62 1009.1
20260504200033 79 196 11.3 19.1 0.00 0.00 0.00 63 1009.2
20260504195546 79 203 10.4 17.4 0.00 0.00 0.00 62 1009.6
20260504195048 79 184 10.4 17.4 0.00 0.00 0.00 61 1009.5